Location: Chandrammap?lem
(16.9200°N, 81.0051°E)
Time: 07:38:20
(UTC+00:00)

CZ-3A R/B - Pass Details

Date: 08 August 2024
Orbit: 420 x 34799 km, 24.7° (Epoch: 06 September)

Event Time Altitude Azimuth Distance (km) Brightness Sun altitude
Rises 04:13:31 0° 223° (SW) 7,246 7.2 54.5°
Reaches altitude 10° 04:16:41 10° 219° (SW) 7,208 7.3 55.3°
Maximum altitude 08:21:23 88° 22° (NNE) 34,282 12.3 66.1°
Enters shadow 13:53:30 12° 101° (E) 5,791 6.3 -11.8°
